Location: Catstown
(52.4386°N, 7.2633°W)
Time: 12:55:13
(UTC+00:00)

Lacrosse 4 Rocket - Pass Details

Date: 18 September 2020
Orbit: 543 x 615 km, 68.0° (Epoch: 25 October)

Event Time Altitude Azimuth Distance (km) Brightness Sun altitude
Rises 20:55:59 0° 326° (NW) 2,717 6.0 -21.0°
Reaches altitude 10° 20:58:30 10° 340° (NNW) 1,822 4.7 -21.3°
Maximum altitude 21:01:52 25° 37° (NE) 1,147 2.9 -21.7°
Enters shadow 21:02:05 24° 42° (NE) 1,151 2.8 -21.7°
